Time,TemperatureF,DewpointF,PressureIn,WindDirection,WindDirectionDegrees,WindSpeedMPH,WindSpeedGustMPH,Humidity,HourlyPrecipIn,Conditions,Clouds,dailyrainin,SoftwareType,DateUTC
2013-01-23 00:00:00,13.3,0.9,30.13,WNW,303,8.0,11.0,57,0.00,,,0.00,WeatherCatV1.01B143,2013-01-23 05:00:00,
2013-01-23 00:01:00,13.3,0.6,30.13,NW,305,9.0,11.0,56,0.00,,,0.00,WeatherCatV1.01B143,2013-01-23 05:01:00,
2013-01-23 00:06:00,13.3,0.6,30.13,NW,316,7.0,7.0,56,0.00,,,0.00,WeatherCatV1.01B143,2013-01-23 05:06:00,
2013-01-23 00:11:00,13.2,0.9,30.13,WNW,298,5.0,7.0,57,0.00,,,0.00,WeatherCatV1.01B143,2013-01-23 05:11:00,
2013-01-23 00:16:00,13.1,1.5,30.13,NW,311,7.0,7.0,59,0.00,,,0.00,WeatherCatV1.01B143,2013-01-23 05:16:00,
2013-01-23 00:21:00,12.9,0.9,30.13,NW,305,5.0,8.0,58,0.00,,,0.00,WeatherCatV1.01B143,2013-01-23 05:21:00,
2013-01-23 00:26:00,12.8,0.8,30.13,WNW,297,6.0,9.0,58,0.00,,,0.00,WeatherCatV1.01B143,2013-01-23 05:26:00,
2013-01-23 00:31:00,12.8,0.1,30.13,WNW,299,7.0,9.0,56,0.00,,,0.00,WeatherCatV1.01B143,2013-01-23 05:31:00,
2013-01-23 00:36:00,12.9,0.2,30.13,NNW,340,5.0,11.0,56,0.00,,,0.00,WeatherCatV1.01B143,2013-01-23 05:36:00,
2013-01-23 00:41:00,12.9,-0.2,30.13,NW,308,10.0,13.0,55,0.00,,,0.00,WeatherCatV1.01B143,2013-01-23 05:41:00,
2013-01-23 00:46:00,12.9,-0.6,30.13,NW,309,11.0,12.0,54,0.00,,,0.00,WeatherCatV1.01B143,2013-01-23 05:46:00,
2013-01-23 00:51:00,12.7,-0.8,30.13,NW,311,10.0,13.0,54,0.00,,,0.00,WeatherCatV1.01B143,2013-01-23 05:51:00,
2013-01-23 00:56:00,12.6,-0.9,30.13,WNW,301,8.0,12.0,54,0.00,,,0.00,WeatherCatV1.01B143,2013-01-23 05:56:00,
2013-01-23 01:01:00,12.6,-0.9,30.13,WNW,299,11.0,11.0,54,0.00,,,0.00,WeatherCatV1.01B143,2013-01-23 06:01:00,
2013-01-23 01:06:00,12.5,-0.6,30.13,WNW,297,6.0,9.0,55,0.00,,,0.00,WeatherCatV1.01B143,2013-01-23 06:06:00,
2013-01-23 01:11:00,12.5,-0.6,30.14,WNW,301,7.0,12.0,55,0.00,,,0.00,WeatherCatV1.01B143,2013-01-23 06:11:00,
2013-01-23 01:16:00,12.5,-0.9,30.14,NW,304,9.0,12.0,54,0.00,,,0.00,WeatherCatV1.01B143,2013-01-23 06:16:00,
2013-01-23 01:21:00,12.4,-0.7,30.14,WNW,299,6.0,10.0,55,0.00,,,0.00,WeatherCatV1.01B143,2013-01-23 06:21:00,
2013-01-23 01:26:00,12.4,-1.0,30.14,WNW,294,10.0,11.0,54,0.00,,,0.00,WeatherCatV1.01B143,2013-01-23 06:26:00,
2013-01-23 01:31:00,12.3,-0.7,30.14,NW,305,8.0,10.0,55,0.00,,,0.00,WeatherCatV1.01B143,2013-01-23 06:31:00,
2013-01-23 01:36:00,12.2,-1.2,30.15,NW,318,6.0,12.0,54,0.00,,,0.00,WeatherCatV1.01B143,2013-01-23 06:36:00,
2013-01-23 01:41:00,12.1,-0.6,30.15,NW,304,8.0,9.0,56,0.00,,,0.00,WeatherCatV1.01B143,2013-01-23 06:41:00,
2013-01-23 01:46:00,12.0,-1.0,30.15,NW,308,5.0,10.0,55,0.00,,,0.00,WeatherCatV1.01B143,2013-01-23 06:46:00,
2013-01-23 01:51:00,11.9,-0.7,30.15,NNW,330,5.0,8.0,56,0.00,,,0.00,WeatherCatV1.01B143,2013-01-23 06:51:00,
2013-01-23 01:56:00,11.8,-0.8,30.15,NW,311,7.0,9.0,56,0.00,,,0.00,WeatherCatV1.01B143,2013-01-23 06:56:00,
2013-01-23 02:01:00,11.8,-0.8,30.15,WNW,299,7.0,10.0,56,0.00,,,0.00,WeatherCatV1.01B143,2013-01-23 07:01:00,
2013-01-23 02:06:00,11.7,-0.9,30.15,WNW,291,7.0,11.0,56,0.00,,,0.00,WeatherCatV1.01B143,2013-01-23 07:06:00,
2013-01-23 02:11:00,11.6,-0.6,30.16,WNW,299,6.0,12.0,57,0.00,,,0.00,WeatherCatV1.01B143,2013-01-23 07:11:00,
2013-01-23 02:16:00,11.7,-0.9,30.15,WNW,301,10.0,17.0,56,0.00,,,0.00,WeatherCatV1.01B143,2013-01-23 07:16:00,
2013-01-23 02:21:00,11.8,-0.8,30.16,WNW,291,9.0,13.0,56,0.00,,,0.00,WeatherCatV1.01B143,2013-01-23 07:21:00,
2013-01-23 02:26:00,11.8,-0.8,30.16,West,273,10.0,14.0,56,0.00,,,0.00,WeatherCatV1.01B143,2013-01-23 07:26:00,
2013-01-23 02:32:00,11.8,-1.6,30.16,NW,305,9.0,12.0,54,0.00,,,0.00,WeatherCatV1.01B143,2013-01-23 07:32:00,
2013-01-23 02:37:00,11.7,-1.7,30.16,WNW,294,9.0,11.0,54,0.00,,,0.00,WeatherCatV1.01B143,2013-01-23 07:37:00,
2013-01-23 02:42:00,11.6,-2.2,30.16,WNW,302,11.0,14.0,53,0.00,,,0.00,WeatherCatV1.01B143,2013-01-23 07:42:00,
2013-01-23 02:47:00,11.4,-2.4,30.16,NW,305,8.0,16.0,53,0.00,,,0.00,WeatherCatV1.01B143,2013-01-23 07:47:00,
2013-01-23 02:52:00,11.3,-2.5,30.16,NW,304,13.0,18.0,53,0.00,,,0.00,WeatherCatV1.01B143,2013-01-23 07:52:00,
2013-01-23 02:57:00,11.2,-2.2,30.16,WNW,294,12.0,13.0,54,0.00,,,0.00,WeatherCatV1.01B143,2013-01-23 07:57:00,
2013-01-23 03:02:00,11.2,-2.2,30.16,WNW,299,11.0,13.0,54,0.00,,,0.00,WeatherCatV1.01B143,2013-01-23 08:02:00,
2013-01-23 03:07:00,11.1,-2.3,30.16,WNW,299,10.0,12.0,54,0.00,,,0.00,WeatherCatV1.01B143,2013-01-23 08:07:00,
2013-01-23 03:12:00,11.1,-3.0,30.16,WNW,292,10.0,14.0,52,0.00,,,0.00,WeatherCatV1.01B143,2013-01-23 08:12:00,
2013-01-23 03:17:00,11.0,-2.3,30.16,NW,312,11.0,15.0,54,0.00,,,0.00,WeatherCatV1.01B143,2013-01-23 08:17:00,
2013-01-23 03:22:00,11.0,-2.7,30.16,WNW,297,10.0,15.0,53,0.00,,,0.00,WeatherCatV1.01B143,2013-01-23 08:22:00,
2013-01-23 03:27:00,10.9,-2.8,30.16,WNW,292,10.0,13.0,53,0.00,,,0.00,WeatherCatV1.01B143,2013-01-23 08:27:00,
2013-01-23 03:32:00,10.9,-2.8,30.16,WNW,303,12.0,13.0,53,0.00,,,0.00,WeatherCatV1.01B143,2013-01-23 08:32:00,
2013-01-23 03:37:00,10.8,-2.5,30.17,NW,306,10.0,12.0,54,0.00,,,0.00,WeatherCatV1.01B143,2013-01-23 08:37:00,
2013-01-23 03:42:00,10.7,-2.6,30.17,NW,315,11.0,13.0,54,0.00,,,0.00,WeatherCatV1.01B143,2013-01-23 08:42:00,
2013-01-23 03:47:00,10.6,-2.3,30.17,WNW,297,10.0,14.0,55,0.00,,,0.00,WeatherCatV1.01B143,2013-01-23 08:47:00,
2013-01-23 03:52:00,10.6,-2.7,30.17,WNW,301,11.0,14.0,54,0.00,,,0.00,WeatherCatV1.01B143,2013-01-23 08:52:00,
2013-01-23 03:57:00,10.6,-2.7,30.17,WNW,299,13.0,15.0,54,0.00,,,0.00,WeatherCatV1.01B143,2013-01-23 08:57:00,
2013-01-23 04:02:00,10.6,-2.3,30.17,NW,304,9.0,13.0,55,0.00,,,0.00,WeatherCatV1.01B143,2013-01-23 09:02:00,
2013-01-23 04:07:00,10.5,-2.4,30.17,WNW,290,11.0,16.0,55,0.00,,,0.00,WeatherCatV1.01B143,2013-01-23 09:07:00,
2013-01-23 04:12:00,10.5,-2.4,30.17,NW,306,14.0,18.0,55,0.00,,,0.00,WeatherCatV1.01B143,2013-01-23 09:12:00,
2013-01-23 04:17:00,10.4,-2.5,30.17,NW,305,11.0,13.0,55,0.00,,,0.00,WeatherCatV1.01B143,2013-01-23 09:17:00,
2013-01-23 04:22:00,10.3,-2.2,30.17,WNW,298,11.0,13.0,56,0.00,,,0.00,WeatherCatV1.01B143,2013-01-23 09:22:00,
2013-01-23 04:27:00,10.3,-2.6,30.17,NW,306,11.0,13.0,55,0.00,,,0.00,WeatherCatV1.01B143,2013-01-23 09:27:00,
2013-01-23 04:32:00,10.3,-2.6,30.17,NW,305,6.0,15.0,55,0.00,,,0.00,WeatherCatV1.01B143,2013-01-23 09:32:00,
2013-01-23 04:37:00,10.2,-2.3,30.17,NW,312,9.0,14.0,56,0.00,,,0.00,WeatherCatV1.01B143,2013-01-23 09:37:00,
2013-01-23 04:42:00,10.1,-2.1,30.17,WNW,296,12.0,13.0,57,0.00,,,0.00,WeatherCatV1.01B143,2013-01-23 09:42:00,
2013-01-23 04:47:00,10.2,-2.3,30.17,WNW,301,11.0,15.0,56,0.00,,,0.00,WeatherCatV1.01B143,2013-01-23 09:47:00,
2013-01-23 04:52:00,10.1,-2.4,30.17,WNW,298,10.0,11.0,56,0.00,,,0.00,WeatherCatV1.01B143,2013-01-23 09:52:00,
2013-01-23 04:57:00,10.0,-2.2,30.18,WNW,298,11.0,12.0,57,0.00,,,0.00,WeatherCatV1.01B143,2013-01-23 09:57:00,
2013-01-23 05:02:00,10.0,-2.2,30.18,WNW,299,7.0,12.0,57,0.00,,,0.00,WeatherCatV1.01B143,2013-01-23 10:02:00,
2013-01-23 05:07:00,10.0,-1.8,30.18,West,274,8.0,13.0,58,0.00,,,0.00,WeatherCatV1.01B143,2013-01-23 10:07:00,
2013-01-23 05:12:00,9.8,-2.3,30.18,WNW,296,7.0,13.0,57,0.00,,,0.00,WeatherCatV1.01B143,2013-01-23 10:12:00,
2013-01-23 05:17:00,9.9,-2.2,30.18,NW,323,8.0,14.0,57,0.00,,,0.00,WeatherCatV1.01B143,2013-01-23 10:17:00,
2013-01-23 05:22:00,8.9,-3.2,30.18,NW,308,14.0,14.0,57,0.00,,,0.00,WeatherCatV1.01B143,2013-01-23 10:22:00,
2013-01-23 05:27:00,8.9,-3.2,30.18,NW,308,14.0,14.0,57,0.00,,,0.00,WeatherCatV1.01B143,2013-01-23 10:27:00,
2013-01-23 05:32:00,-999.0,-99.9,30.18,North,-999,-999.0,0.0,-999,0.00,,,0.00,WeatherCatV1.01B143,2013-01-23 10:32:00,
2013-01-23 05:37:00,-999.0,-99.9,30.18,North,-999,-999.0,0.0,-999,0.00,,,0.00,WeatherCatV1.01B143,2013-01-23 10:37:00,
2013-01-23 05:42:00,-999.0,-99.9,30.18,North,-999,-999.0,0.0,-999,0.00,,,0.00,WeatherCatV1.01B143,2013-01-23 10:42:00,
2013-01-23 05:47:00,-999.0,-99.9,30.19,North,-999,-999.0,0.0,-999,0.00,,,0.00,WeatherCatV1.01B143,2013-01-23 10:47:00,
2013-01-23 05:52:00,-999.0,-99.9,30.19,North,-999,-999.0,0.0,-999,0.00,,,0.00,WeatherCatV1.01B143,2013-01-23 10:52:00,
2013-01-23 05:57:00,-999.0,-99.9,30.19,North,-999,-999.0,0.0,-999,0.00,,,0.00,WeatherCatV1.01B143,2013-01-23 10:57:00,
2013-01-23 06:02:00,-999.0,-99.9,30.19,North,-999,-999.0,0.0,-999,0.00,,,0.00,WeatherCatV1.01B143,2013-01-23 11:02:00,
2013-01-23 06:07:00,-999.0,-99.9,30.19,North,-999,-999.0,0.0,-999,0.00,,,0.00,WeatherCatV1.01B143,2013-01-23 11:07:00,
2013-01-23 06:12:00,-999.0,-99.9,30.19,North,-999,-999.0,0.0,-999,0.00,,,0.00,WeatherCatV1.01B143,2013-01-23 11:12:00,
2013-01-23 06:17:00,-999.0,-99.9,30.19,North,-999,-999.0,0.0,-999,0.00,,,0.00,WeatherCatV1.01B143,2013-01-23 11:17:00,
2013-01-23 06:22:00,-999.0,-99.9,30.19,North,-999,-999.0,0.0,-999,0.00,,,0.00,WeatherCatV1.01B143,2013-01-23 11:22:00,
2013-01-23 06:27:00,-999.0,-99.9,30.19,North,-999,-999.0,0.0,-999,0.00,,,0.00,WeatherCatV1.01B143,2013-01-23 11:27:00,
2013-01-23 06:32:00,-999.0,-99.9,30.19,North,-999,-999.0,0.0,-999,0.00,,,0.00,WeatherCatV1.01B143,2013-01-23 11:32:00,
2013-01-23 06:37:00,-999.0,-99.9,30.20,North,-999,-999.0,0.0,-999,0.00,,,0.00,WeatherCatV1.01B143,2013-01-23 11:37:00,
2013-01-23 06:42:00,-999.0,-99.9,30.20,North,-999,-999.0,0.0,-999,0.00,,,0.00,WeatherCatV1.01B143,2013-01-23 11:42:00,
2013-01-23 06:47:00,-999.0,-99.9,30.19,North,-999,-999.0,0.0,-999,0.00,,,0.00,WeatherCatV1.01B143,2013-01-23 11:47:00,
2013-01-23 06:52:00,-999.0,-99.9,30.19,North,-999,-999.0,0.0,-999,0.00,,,0.00,WeatherCatV1.01B143,2013-01-23 11:52:00,
2013-01-23 06:57:00,-999.0,-99.9,30.19,North,-999,-999.0,0.0,-999,0.00,,,0.00,WeatherCatV1.01B143,2013-01-23 11:57:00,
2013-01-23 07:02:00,-999.0,-99.9,30.20,North,-999,-999.0,0.0,-999,0.00,,,0.00,WeatherCatV1.01B143,2013-01-23 12:02:00,
2013-01-23 07:07:00,-999.0,-99.9,30.20,North,-999,-999.0,0.0,-999,0.00,,,0.00,WeatherCatV1.01B143,2013-01-23 12:07:00,
2013-01-23 07:12:00,-999.0,-99.9,30.20,North,-999,-999.0,0.0,-999,0.00,,,0.00,WeatherCatV1.01B143,2013-01-23 12:12:00,
2013-01-23 07:17:00,-999.0,-99.9,30.20,North,-999,-999.0,0.0,-999,0.00,,,0.00,WeatherCatV1.01B143,2013-01-23 12:17:00,
2013-01-23 07:22:00,-999.0,-99.9,30.20,North,-999,-999.0,0.0,-999,0.00,,,0.00,WeatherCatV1.01B143,2013-01-23 12:22:00,
2013-01-23 07:27:00,9.1,-1.6,30.20,NW,305,9.0,17.0,61,0.00,,,0.00,WeatherCatV1.01B143,2013-01-23 12:27:00,
2013-01-23 07:32:00,9.2,-1.1,30.20,NW,305,10.0,17.0,62,0.00,,,0.00,WeatherCatV1.01B143,2013-01-23 12:32:00,
2013-01-23 07:37:00,9.1,-1.2,30.20,WNW,290,7.0,10.0,62,0.00,,,0.00,WeatherCatV1.01B143,2013-01-23 12:37:00,
2013-01-23 07:42:00,9.1,-1.2,30.21,WNW,290,11.0,15.0,62,0.00,,,0.00,WeatherCatV1.01B143,2013-01-23 12:42:00,
2013-01-23 07:47:00,9.2,-1.1,30.21,NW,311,9.0,16.0,62,0.00,,,0.00,WeatherCatV1.01B143,2013-01-23 12:47:00,
2013-01-23 07:52:00,9.3,-1.0,30.21,NW,305,8.0,14.0,62,0.00,,,0.00,WeatherCatV1.01B143,2013-01-23 12:52:00,
2013-01-23 07:57:00,9.4,-1.3,30.21,WNW,301,15.0,15.0,61,0.00,,,0.00,WeatherCatV1.01B143,2013-01-23 12:57:00,
2013-01-23 08:02:00,9.6,-1.1,30.21,NW,306,11.0,15.0,61,0.00,,,0.00,WeatherCatV1.01B143,2013-01-23 13:02:00,
2013-01-23 08:07:00,9.7,-1.4,30.21,WNW,301,10.0,14.0,60,0.00,,,0.00,WeatherCatV1.01B143,2013-01-23 13:07:00,
2013-01-23 08:12:00,9.9,-0.8,30.21,WNW,291,7.0,9.0,61,0.00,,,0.00,WeatherCatV1.01B143,2013-01-23 13:12:00,
2013-01-23 08:17:00,9.9,-1.5,30.22,NW,305,11.0,14.0,59,0.00,,,0.00,WeatherCatV1.01B143,2013-01-23 13:17:00,
2013-01-23 08:22:00,10.0,-1.1,30.22,WNW,301,18.0,21.0,60,0.00,,,0.00,WeatherCatV1.01B143,2013-01-23 13:22:00,
2013-01-23 08:27:00,10.2,-1.2,30.22,NW,304,14.0,17.0,59,0.00,,,0.00,WeatherCatV1.01B143,2013-01-23 13:27:00,
2013-01-23 08:32:00,10.2,-1.2,30.22,NW,305,8.0,18.0,59,0.00,,,0.00,WeatherCatV1.01B143,2013-01-23 13:32:00,
2013-01-23 08:37:00,10.4,-1.4,30.22,WNW,299,13.0,22.0,58,0.00,,,0.00,WeatherCatV1.01B143,2013-01-23 13:37:00,
2013-01-23 08:42:00,10.6,-0.9,30.22,WNW,303,13.0,13.0,59,0.00,,,0.00,WeatherCatV1.01B143,2013-01-23 13:42:00,
2013-01-23 08:47:00,10.6,-1.2,30.22,NW,306,10.0,20.0,58,0.00,,,0.00,WeatherCatV1.01B143,2013-01-23 13:47:00,
2013-01-23 08:52:00,10.7,-1.5,30.22,WNW,285,10.0,20.0,57,0.00,,,0.00,WeatherCatV1.01B143,2013-01-23 13:52:00,
2013-01-23 08:57:00,10.9,-1.3,30.22,North,10,9.0,14.0,57,0.00,,,0.00,WeatherCatV1.01B143,2013-01-23 13:57:00,
2013-01-23 09:02:00,11.2,-1.0,30.21,NW,315,7.0,14.0,57,0.00,,,0.00,WeatherCatV1.01B143,2013-01-23 14:02:00,
2013-01-23 09:07:00,11.5,-0.7,30.22,North,354,12.0,16.0,57,0.00,,,0.00,WeatherCatV1.01B143,2013-01-23 14:07:00,
2013-01-23 09:12:00,11.7,-0.6,30.22,WNW,302,7.0,17.0,57,0.00,,,0.00,WeatherCatV1.01B143,2013-01-23 14:12:00,
2013-01-23 09:17:00,11.8,-1.2,30.22,NW,306,13.0,16.0,55,0.00,,,0.00,WeatherCatV1.01B143,2013-01-23 14:17:00,
2013-01-23 09:22:00,11.8,-1.2,30.22,NW,307,14.0,16.0,55,0.00,,,0.00,WeatherCatV1.01B143,2013-01-23 14:22:00,
2013-01-23 09:27:00,11.7,-2.1,30.22,WNW,301,13.0,19.0,53,0.00,,,0.00,WeatherCatV1.01B143,2013-01-23 14:27:00,
2013-01-23 09:32:00,11.9,-1.5,30.22,WNW,290,10.0,18.0,54,0.00,,,0.00,WeatherCatV1.01B143,2013-01-23 14:32:00,
2013-01-23 09:37:00,12.3,-0.4,30.22,WNW,297,13.0,14.0,56,0.00,,,0.00,WeatherCatV1.01B143,2013-01-23 14:37:00,
2013-01-23 09:42:00,12.4,-1.0,30.22,WNW,295,10.0,17.0,54,0.00,,,0.00,WeatherCatV1.01B143,2013-01-23 14:42:00,
2013-01-23 09:47:00,12.5,-1.3,30.22,WNW,290,5.0,18.0,53,0.00,,,0.00,WeatherCatV1.01B143,2013-01-23 14:47:00,
2013-01-23 09:52:00,12.9,-0.6,30.22,NW,304,9.0,12.0,54,0.00,,,0.00,WeatherCatV1.01B143,2013-01-23 14:52:00,
2013-01-23 09:57:00,13.1,-0.4,30.22,NW,316,11.0,15.0,54,0.00,,,0.00,WeatherCatV1.01B143,2013-01-23 14:57:00,
2013-01-23 10:02:00,13.0,-1.3,30.22,NW,308,9.0,18.0,52,0.00,,,0.00,WeatherCatV1.01B143,2013-01-23 15:02:00,
2013-01-23 10:07:00,13.2,-1.5,30.22,WNW,287,8.0,18.0,51,0.00,,,0.00,WeatherCatV1.01B143,2013-01-23 15:07:00,
2013-01-23 10:12:00,13.1,-1.6,30.21,NW,305,8.0,16.0,51,0.00,,,0.00,WeatherCatV1.01B143,2013-01-23 15:12:00,
2013-01-23 10:17:00,13.2,-1.5,30.21,WNW,285,14.0,17.0,51,0.00,,,0.00,WeatherCatV1.01B143,2013-01-23 15:17:00,
2013-01-23 10:22:00,13.0,-2.1,30.21,West,279,14.0,18.0,50,0.00,,,0.00,WeatherCatV1.01B143,2013-01-23 15:22:00,
2013-01-23 10:27:00,13.3,-1.4,30.21,WNW,301,15.0,20.0,51,0.00,,,0.00,WeatherCatV1.01B143,2013-01-23 15:27:00,
2013-01-23 10:32:00,13.3,-1.4,30.21,WNW,301,16.0,19.0,51,0.00,,,0.00,WeatherCatV1.01B143,2013-01-23 15:32:00,
2013-01-23 10:37:00,13.8,-0.5,30.21,West,268,7.0,15.0,52,0.00,,,0.00,WeatherCatV1.01B143,2013-01-23 15:37:00,
2013-01-23 10:42:00,13.7,-1.5,30.21,WNW,287,15.0,20.0,50,0.00,,,0.00,WeatherCatV1.01B143,2013-01-23 15:42:00,
2013-01-23 10:47:00,13.8,-1.8,30.20,WNW,301,11.0,17.0,49,0.00,,,0.00,WeatherCatV1.01B143,2013-01-23 15:47:00,
2013-01-23 10:52:00,13.8,-1.8,30.20,NW,310,13.0,19.0,49,0.00,,,0.00,WeatherCatV1.01B143,2013-01-23 15:52:00,
2013-01-23 10:57:00,14.1,-1.1,30.20,NW,311,11.0,19.0,50,0.00,,,0.00,WeatherCatV1.01B143,2013-01-23 15:57:00,
2013-01-23 11:02:00,14.2,-1.8,30.19,NW,308,13.0,19.0,48,0.00,,,0.00,WeatherCatV1.01B143,2013-01-23 16:02:00,
2013-01-23 11:07:00,14.5,-1.6,30.19,WNW,301,8.0,17.0,48,0.00,,,0.00,WeatherCatV1.01B143,2013-01-23 16:07:00,
2013-01-23 11:12:00,14.5,-1.6,30.19,NW,312,16.0,20.0,48,0.00,,,0.00,WeatherCatV1.01B143,2013-01-23 16:12:00,
2013-01-23 11:17:00,14.7,-2.3,30.19,NW,304,19.0,22.0,46,0.00,,,0.00,WeatherCatV1.01B143,2013-01-23 16:17:00,
2013-01-23 11:22:00,14.4,-2.6,30.18,West,277,11.0,18.0,46,0.00,,,0.00,WeatherCatV1.01B143,2013-01-23 16:22:00,
2013-01-23 11:27:00,14.5,-2.0,30.18,NW,311,13.0,23.0,47,0.00,,,0.00,WeatherCatV1.01B143,2013-01-23 16:27:00,
2013-01-23 11:32:00,14.7,-2.7,30.18,WNW,301,13.0,13.0,45,0.00,,,0.00,WeatherCatV1.01B143,2013-01-23 16:32:00,
2013-01-23 11:37:00,14.9,-2.1,30.17,WNW,295,17.0,22.0,46,0.00,,,0.00,WeatherCatV1.01B143,2013-01-23 16:37:00,
2013-01-23 11:42:00,15.1,-1.9,30.17,West,281,9.0,18.0,46,0.00,,,0.00,WeatherCatV1.01B143,2013-01-23 16:42:00,
2013-01-23 11:47:00,15.5,-1.5,30.17,WNW,301,16.0,23.0,46,0.00,,,0.00,WeatherCatV1.01B143,2013-01-23 16:47:00,
2013-01-23 11:52:00,15.7,-2.3,30.16,WNW,289,9.0,19.0,44,0.00,,,0.00,WeatherCatV1.01B143,2013-01-23 16:52:00,
2013-01-23 11:57:00,16.3,-1.3,30.16,North,351,11.0,14.0,45,0.00,,,0.00,WeatherCatV1.01B143,2013-01-23 16:57:00,
2013-01-23 12:02:00,16.4,-1.7,30.16,WNW,282,12.0,15.0,44,0.00,,,0.00,WeatherCatV1.01B143,2013-01-23 17:02:00,
2013-01-23 12:07:00,16.0,-3.0,30.15,WNW,295,18.0,27.0,42,0.00,,,0.00,WeatherCatV1.01B143,2013-01-23 17:07:00,
2013-01-23 12:12:00,15.9,-2.6,30.15,WNW,293,21.0,22.0,43,0.00,,,0.00,WeatherCatV1.01B143,2013-01-23 17:12:00,
2013-01-23 12:17:00,15.8,-2.7,30.15,WNW,295,22.0,23.0,43,0.00,,,0.00,WeatherCatV1.01B143,2013-01-23 17:17:00,
2013-01-23 12:22:00,15.9,-3.1,30.14,WSW,247,11.0,23.0,42,0.00,,,0.00,WeatherCatV1.01B143,2013-01-23 17:22:00,
2013-01-23 12:27:00,15.8,-3.2,30.15,WNW,297,14.0,24.0,42,0.00,,,0.00,WeatherCatV1.01B143,2013-01-23 17:27:00,
2013-01-23 12:32:00,15.5,-3.5,30.15,WNW,297,12.0,22.0,42,0.00,,,0.00,WeatherCatV1.01B143,2013-01-23 17:32:00,
2013-01-23 12:37:00,15.6,-3.4,30.14,WNW,297,13.0,19.0,42,0.00,,,0.00,WeatherCatV1.01B143,2013-01-23 17:37:00,
2013-01-23 12:42:00,15.7,-3.3,30.14,WNW,301,19.0,27.0,42,0.00,,,0.00,WeatherCatV1.01B143,2013-01-23 17:42:00,
2013-01-23 12:47:00,15.9,-3.1,30.14,NNW,339,18.0,23.0,42,0.00,,,0.00,WeatherCatV1.01B143,2013-01-23 17:47:00,
2013-01-23 12:52:00,15.8,-2.7,30.14,NW,318,20.0,23.0,43,0.00,,,0.00,WeatherCatV1.01B143,2013-01-23 17:52:00,
2013-01-23 12:57:00,16.0,-2.5,30.13,NW,306,15.0,20.0,43,0.00,,,0.00,WeatherCatV1.01B143,2013-01-23 17:57:00,
2013-01-23 13:02:00,16.3,-1.7,30.13,WNW,301,11.0,17.0,44,0.00,,,0.00,WeatherCatV1.01B143,2013-01-23 18:02:00,
2013-01-23 13:07:00,16.8,-0.4,30.13,North,350,6.0,13.0,46,0.00,,,0.00,WeatherCatV1.01B143,2013-01-23 18:07:00,
2013-01-23 13:12:00,16.7,-2.4,30.13,WNW,299,11.0,16.0,42,0.00,,,0.00,WeatherCatV1.01B143,2013-01-23 18:12:00,
2013-01-23 13:17:00,16.9,-1.7,30.13,North,1,10.0,16.0,43,0.00,,,0.00,WeatherCatV1.01B143,2013-01-23 18:17:00,
2013-01-23 13:22:00,17.4,-0.7,30.14,NW,305,15.0,21.0,44,0.00,,,0.00,WeatherCatV1.01B143,2013-01-23 18:22:00,
2013-01-23 13:27:00,16.5,-3.0,30.13,NW,306,8.0,24.0,41,0.00,,,0.00,WeatherCatV1.01B143,2013-01-23 18:27:00,
2013-01-23 13:32:00,16.3,-2.7,30.13,WNW,297,22.0,24.0,42,0.00,,,0.00,WeatherCatV1.01B143,2013-01-23 18:32:00,
2013-01-23 13:37:00,16.0,-3.0,30.13,WNW,285,18.0,20.0,42,0.00,,,0.00,WeatherCatV1.01B143,2013-01-23 18:37:00,
2013-01-23 13:42:00,16.0,-3.0,30.13,West,281,9.0,23.0,42,0.00,,,0.00,WeatherCatV1.01B143,2013-01-23 18:42:00,
2013-01-23 13:47:00,16.9,-0.7,30.13,North,350,14.0,17.0,45,0.00,,,0.00,WeatherCatV1.01B143,2013-01-23 18:47:00,
2013-01-23 13:52:00,16.8,-2.3,30.13,NW,312,10.0,19.0,42,0.00,,,0.00,WeatherCatV1.01B143,2013-01-23 18:52:00,
2013-01-23 13:57:00,16.9,-1.7,30.13,NW,316,12.0,17.0,43,0.00,,,0.00,WeatherCatV1.01B143,2013-01-23 18:57:00,
2013-01-23 14:02:00,17.0,-1.1,30.13,NW,305,6.0,18.0,44,0.00,,,0.00,WeatherCatV1.01B143,2013-01-23 19:02:00,
2013-01-23 14:07:00,16.9,-3.2,30.13,WNW,297,14.0,18.0,40,0.00,,,0.00,WeatherCatV1.01B143,2013-01-23 19:07:00,
2013-01-23 14:12:00,16.8,-2.3,30.13,WNW,290,15.0,25.0,42,0.00,,,0.00,WeatherCatV1.01B143,2013-01-23 19:12:00,
2013-01-23 14:17:00,16.8,-2.3,30.13,WNW,290,11.0,19.0,42,0.00,,,0.00,WeatherCatV1.01B143,2013-01-23 19:17:00,
2013-01-23 14:22:00,16.6,-3.0,30.13,NW,312,14.0,20.0,41,0.00,,,0.00,WeatherCatV1.01B143,2013-01-23 19:22:00,
2013-01-23 14:27:00,16.7,-2.4,30.13,NNW,328,19.0,21.0,42,0.00,,,0.00,WeatherCatV1.01B143,2013-01-23 19:27:00,
2013-01-23 14:32:00,16.9,-2.7,30.13,WNW,294,11.0,22.0,41,0.00,,,0.00,WeatherCatV1.01B143,2013-01-23 19:32:00,
2013-01-23 14:39:00,17.2,-2.9,30.13,WNW,297,15.0,24.0,40,0.00,,,0.00,WeatherCatV1.01B143,2013-01-23 19:39:00,
2013-01-23 14:44:00,17.2,-2.4,30.13,WNW,301,14.0,24.0,41,0.00,,,0.00,WeatherCatV1.01B143,2013-01-23 19:44:00,
2013-01-23 14:49:00,17.1,-3.0,30.13,WNW,285,23.0,29.0,40,0.00,,,0.00,WeatherCatV1.01B143,2013-01-23 19:49:00,
2013-01-23 14:54:00,17.3,-1.8,30.13,NW,316,18.0,18.0,42,0.00,,,0.00,WeatherCatV1.01B143,2013-01-23 19:54:00,
2013-01-23 14:59:00,17.0,-3.6,30.13,WNW,301,10.0,21.0,39,0.00,,,0.00,WeatherCatV1.01B143,2013-01-23 19:59:00,
2013-01-23 15:04:00,16.7,-3.4,30.13,NW,306,10.0,20.0,40,0.00,,,0.00,WeatherCatV1.01B143,2013-01-23 20:04:00,
2013-01-23 15:09:00,16.9,-3.2,30.13,WNW,290,19.0,21.0,40,0.00,,,0.00,WeatherCatV1.01B143,2013-01-23 20:09:00,
2013-01-23 15:14:00,16.9,-2.7,30.13,West,273,20.0,22.0,41,0.00,,,0.00,WeatherCatV1.01B143,2013-01-23 20:14:00,
2013-01-23 15:19:00,16.3,-3.7,30.13,WNW,296,8.0,24.0,40,0.00,,,0.00,WeatherCatV1.01B143,2013-01-23 20:19:00,
2013-01-23 15:24:00,16.0,-2.5,30.13,NW,314,21.0,22.0,43,0.00,,,0.00,WeatherCatV1.01B143,2013-01-23 20:24:00,
2013-01-23 15:29:00,15.9,-3.6,30.13,WNW,287,17.0,25.0,41,0.00,,,0.00,WeatherCatV1.01B143,2013-01-23 20:29:00,
2013-01-23 15:34:00,16.3,-3.2,30.13,NW,310,13.0,21.0,41,0.00,,,0.00,WeatherCatV1.01B143,2013-01-23 20:34:00,
2013-01-23 15:39:00,16.8,-2.8,30.13,WNW,287,7.0,13.0,41,0.00,,,0.00,WeatherCatV1.01B143,2013-01-23 20:39:00,
2013-01-23 15:44:00,16.9,-3.7,30.13,NW,317,12.0,15.0,39,0.00,,,0.00,WeatherCatV1.01B143,2013-01-23 20:44:00,
2013-01-23 15:49:00,17.2,-2.4,30.13,NW,318,13.0,17.0,41,0.00,,,0.00,WeatherCatV1.01B143,2013-01-23 20:49:00,
2013-01-23 15:54:00,17.2,-2.9,30.13,NW,323,17.0,20.0,40,0.00,,,0.00,WeatherCatV1.01B143,2013-01-23 20:54:00,
2013-01-23 15:59:00,17.1,-3.0,30.13,NNW,339,11.0,20.0,40,0.00,,,0.00,WeatherCatV1.01B143,2013-01-23 20:59:00,
2013-01-23 16:04:00,16.6,-3.5,30.13,NW,313,10.0,16.0,40,0.00,,,0.00,WeatherCatV1.01B143,2013-01-23 21:04:00,
2013-01-23 16:09:00,16.6,-3.5,30.13,NW,307,14.0,18.0,40,0.00,,,0.00,WeatherCatV1.01B143,2013-01-23 21:09:00,
2013-01-23 16:14:00,16.5,-3.0,30.13,NW,313,15.0,15.0,41,0.00,,,0.00,WeatherCatV1.01B143,2013-01-23 21:14:00,
2013-01-23 16:19:00,16.2,-3.8,30.13,North,358,11.0,17.0,40,0.00,,,0.00,WeatherCatV1.01B143,2013-01-23 21:19:00,
2013-01-23 16:24:00,16.1,-2.9,30.13,NNW,332,11.0,18.0,42,0.00,,,0.00,WeatherCatV1.01B143,2013-01-23 21:24:00,
2013-01-23 16:29:00,15.9,-2.6,30.14,North,350,5.0,13.0,43,0.00,,,0.00,WeatherCatV1.01B143,2013-01-23 21:29:00,
2013-01-23 16:34:00,15.6,-2.9,30.14,NW,323,12.0,13.0,43,0.00,,,0.00,WeatherCatV1.01B143,2013-01-23 21:34:00,
2013-01-23 16:39:00,15.5,-3.0,30.14,NW,307,13.0,16.0,43,0.00,,,0.00,WeatherCatV1.01B143,2013-01-23 21:39:00,
2013-01-23 16:44:00,15.4,-2.1,30.14,NW,324,8.0,13.0,45,0.00,,,0.00,WeatherCatV1.01B143,2013-01-23 21:44:00,
2013-01-23 16:49:00,15.2,-2.3,30.14,WNW,301,7.0,8.0,45,0.00,,,0.00,WeatherCatV1.01B143,2013-01-23 21:49:00,
2013-01-23 16:54:00,15.1,-2.8,30.14,NNW,329,9.0,18.0,44,0.00,,,0.00,WeatherCatV1.01B143,2013-01-23 21:54:00,
2013-01-23 16:59:00,15.1,-2.8,30.14,WNW,302,10.0,14.0,44,0.00,,,0.00,WeatherCatV1.01B143,2013-01-23 21:59:00,
2013-01-23 17:04:00,15.0,-2.5,30.15,NW,309,8.0,15.0,45,0.00,,,0.00,WeatherCatV1.01B143,2013-01-23 22:04:00,
2013-01-23 17:09:00,14.9,-2.6,30.15,NNW,334,10.0,12.0,45,0.00,,,0.00,WeatherCatV1.01B143,2013-01-23 22:09:00,
2013-01-23 17:14:00,14.9,-2.1,30.15,NW,309,7.0,16.0,46,0.00,,,0.00,WeatherCatV1.01B143,2013-01-23 22:14:00,
2013-01-23 17:19:00,14.9,-3.0,30.15,NW,320,8.0,12.0,44,0.00,,,0.00,WeatherCatV1.01B143,2013-01-23 22:19:00,
2013-01-23 17:24:00,14.8,-2.6,30.15,NW,308,8.0,12.0,45,0.00,,,0.00,WeatherCatV1.01B143,2013-01-23 22:24:00,
2013-01-23 17:29:00,14.7,-2.3,30.15,NNW,336,6.0,11.0,46,0.00,,,0.00,WeatherCatV1.01B143,2013-01-23 22:29:00,
2013-01-23 17:34:00,14.5,-2.9,30.16,NW,313,7.0,10.0,45,0.00,,,0.00,WeatherCatV1.01B143,2013-01-23 22:34:00,
2013-01-23 17:39:00,14.4,-2.6,30.16,WNW,297,8.0,10.0,46,0.00,,,0.00,WeatherCatV1.01B143,2013-01-23 22:39:00,
2013-01-23 17:44:00,14.4,-2.1,30.16,WNW,297,9.0,11.0,47,0.00,,,0.00,WeatherCatV1.01B143,2013-01-23 22:44:00,
2013-01-23 17:49:00,14.3,-2.2,30.16,WNW,301,8.0,11.0,47,0.00,,,0.00,WeatherCatV1.01B143,2013-01-23 22:49:00,
2013-01-23 17:54:00,14.1,-2.8,30.16,NW,314,9.0,14.0,46,0.00,,,0.00,WeatherCatV1.01B143,2013-01-23 22:54:00,
2013-01-23 17:59:00,14.0,-2.0,30.16,WNW,303,7.0,11.0,48,0.00,,,0.00,WeatherCatV1.01B143,2013-01-23 22:59:00,
2013-01-23 18:04:00,14.0,-2.5,30.17,NW,326,7.0,10.0,47,0.00,,,0.00,WeatherCatV1.01B143,2013-01-23 23:04:00,
2013-01-23 18:09:00,13.9,-2.1,30.17,WNW,301,10.0,12.0,48,0.00,,,0.00,WeatherCatV1.01B143,2013-01-23 23:09:00,
2013-01-23 18:14:00,13.9,-2.6,30.17,NW,312,8.0,10.0,47,0.00,,,0.00,WeatherCatV1.01B143,2013-01-23 23:14:00,
2013-01-23 18:19:00,13.7,-2.3,30.17,NW,305,6.0,12.0,48,0.00,,,0.00,WeatherCatV1.01B143,2013-01-23 23:19:00,
2013-01-23 18:24:00,13.7,-2.3,30.17,NW,304,7.0,11.0,48,0.00,,,0.00,WeatherCatV1.01B143,2013-01-23 23:24:00,
2013-01-23 18:29:00,13.6,-2.0,30.17,NNW,332,7.0,11.0,49,0.00,,,0.00,WeatherCatV1.01B143,2013-01-23 23:29:00,
2013-01-23 18:34:00,13.6,-2.0,30.17,NW,304,9.0,10.0,49,0.00,,,0.00,WeatherCatV1.01B143,2013-01-23 23:34:00,
2013-01-23 18:39:00,13.6,-2.4,30.18,NW,314,9.0,12.0,48,0.00,,,0.00,WeatherCatV1.01B143,2013-01-23 23:39:00,
2013-01-23 18:44:00,13.6,-1.5,30.18,WNW,301,9.0,10.0,50,0.00,,,0.00,WeatherCatV1.01B143,2013-01-23 23:44:00,
2013-01-23 18:49:00,13.6,-1.1,30.18,NW,309,10.0,11.0,51,0.00,,,0.00,WeatherCatV1.01B143,2013-01-23 23:49:00,
2013-01-23 18:54:00,13.6,-1.5,30.18,NW,312,10.0,12.0,50,0.00,,,0.00,WeatherCatV1.01B143,2013-01-23 23:54:00,
2013-01-23 18:59:00,13.6,-2.0,30.18,NW,307,10.0,15.0,49,0.00,,,0.00,WeatherCatV1.01B143,2013-01-23 23:59:00,
2013-01-23 19:04:00,13.6,-1.5,30.18,NW,323,7.0,13.0,50,0.00,,,0.00,WeatherCatV1.01B143,2013-01-24 00:04:00,
2013-01-23 19:09:00,13.4,-1.7,30.18,NW,305,8.0,12.0,50,0.00,,,0.00,WeatherCatV1.01B143,2013-01-24 00:09:00,
2013-01-23 19:14:00,13.3,-1.4,30.18,WNW,301,8.0,13.0,51,0.00,,,0.00,WeatherCatV1.01B143,2013-01-24 00:14:00,
2013-01-23 19:19:00,13.3,-1.4,30.18,WNW,299,10.0,14.0,51,0.00,,,0.00,WeatherCatV1.01B143,2013-01-24 00:19:00,
2013-01-23 19:24:00,13.3,-1.0,30.18,WNW,302,8.0,15.0,52,0.00,,,0.00,WeatherCatV1.01B143,2013-01-24 00:24:00,
2013-01-23 19:29:00,13.3,-1.0,30.18,NW,314,10.0,14.0,52,0.00,,,0.00,WeatherCatV1.01B143,2013-01-24 00:29:00,
2013-01-23 19:34:00,13.3,-1.4,30.18,NW,312,14.0,16.0,51,0.00,,,0.00,WeatherCatV1.01B143,2013-01-24 00:34:00,
2013-01-23 19:39:00,13.3,-1.0,30.18,NW,316,13.0,21.0,52,0.00,,,0.00,WeatherCatV1.01B143,2013-01-24 00:39:00,
2013-01-23 19:44:00,13.4,-1.3,30.18,NW,306,14.0,18.0,51,0.00,,,0.00,WeatherCatV1.01B143,2013-01-24 00:44:00,
2013-01-23 19:49:00,13.3,-1.4,30.18,WNW,296,12.0,16.0,51,0.00,,,0.00,WeatherCatV1.01B143,2013-01-24 00:49:00,
2013-01-23 19:54:00,13.3,-1.4,30.18,NW,305,11.0,16.0,51,0.00,,,0.00,WeatherCatV1.01B143,2013-01-24 00:54:00,
2013-01-23 19:59:00,13.3,-1.4,30.18,WNW,298,16.0,18.0,51,0.00,,,0.00,WeatherCatV1.01B143,2013-01-24 00:59:00,
2013-01-23 20:04:00,13.3,-1.4,30.18,WNW,290,9.0,15.0,51,0.00,,,0.00,WeatherCatV1.01B143,2013-01-24 01:04:00,
2013-01-23 20:09:00,13.2,-2.8,30.18,WNW,284,7.0,21.0,48,0.00,,,0.00,WeatherCatV1.01B143,2013-01-24 01:09:00,
2013-01-23 20:14:00,13.2,-1.9,30.18,WNW,301,16.0,20.0,50,0.00,,,0.00,WeatherCatV1.01B143,2013-01-24 01:14:00,
2013-01-23 20:19:00,13.3,-3.1,30.18,WNW,301,12.0,19.0,47,0.00,,,0.00,WeatherCatV1.01B143,2013-01-24 01:19:00,
2013-01-23 20:24:00,13.2,-2.3,30.19,NW,304,16.0,18.0,49,0.00,,,0.00,WeatherCatV1.01B143,2013-01-24 01:24:00,
2013-01-23 20:29:00,13.2,-2.8,30.19,WNW,297,11.0,19.0,48,0.00,,,0.00,WeatherCatV1.01B143,2013-01-24 01:29:00,
2013-01-23 20:34:00,13.2,-2.8,30.19,NW,312,10.0,15.0,48,0.00,,,0.00,WeatherCatV1.01B143,2013-01-24 01:34:00,
2013-01-23 20:39:00,13.0,-2.5,30.19,WNW,301,13.0,15.0,49,0.00,,,0.00,WeatherCatV1.01B143,2013-01-24 01:39:00,
2013-01-23 20:44:00,13.0,-2.5,30.19,NW,305,5.0,11.0,49,0.00,,,0.00,WeatherCatV1.01B143,2013-01-24 01:44:00,
2013-01-23 20:49:00,12.9,-2.6,30.19,WNW,301,11.0,13.0,49,0.00,,,0.00,WeatherCatV1.01B143,2013-01-24 01:49:00,
2013-01-23 20:54:00,12.9,-3.5,30.19,WNW,297,14.0,15.0,47,0.00,,,0.00,WeatherCatV1.01B143,2013-01-24 01:54:00,
2013-01-23 20:59:00,12.9,-3.0,30.19,WNW,287,6.0,13.0,48,0.00,,,0.00,WeatherCatV1.01B143,2013-01-24 01:59:00,
2013-01-23 21:04:00,12.9,-3.5,30.19,NW,305,16.0,21.0,47,0.00,,,0.00,WeatherCatV1.01B143,2013-01-24 02:04:00,
2013-01-23 21:09:00,12.9,-3.5,30.19,WNW,301,7.0,15.0,47,0.00,,,0.00,WeatherCatV1.01B143,2013-01-24 02:09:00,
2013-01-23 21:14:00,12.8,-4.0,30.19,NW,305,17.0,20.0,46,0.00,,,0.00,WeatherCatV1.01B143,2013-01-24 02:14:00,
2013-01-23 21:19:00,12.8,-3.1,30.19,NW,318,11.0,16.0,48,0.00,,,0.00,WeatherCatV1.01B143,2013-01-24 02:19:00,
2013-01-23 21:24:00,12.6,-2.9,30.19,WNW,299,11.0,14.0,49,0.00,,,0.00,WeatherCatV1.01B143,2013-01-24 02:24:00,
2013-01-23 21:29:00,12.5,-3.4,30.19,NW,304,10.0,18.0,48,0.00,,,0.00,WeatherCatV1.01B143,2013-01-24 02:29:00,
2013-01-23 21:34:00,12.4,-3.1,30.19,NW,305,17.0,17.0,49,0.00,,,0.00,WeatherCatV1.01B143,2013-01-24 02:34:00,
2013-01-23 21:39:00,12.3,-3.2,30.19,NW,313,11.0,17.0,49,0.00,,,0.00,WeatherCatV1.01B143,2013-01-24 02:39:00,
2013-01-23 21:44:00,12.1,-2.9,30.19,NW,320,16.0,19.0,50,0.00,,,0.00,WeatherCatV1.01B143,2013-01-24 02:44:00,
2013-01-23 21:49:00,12.0,-3.0,30.19,NW,323,17.0,17.0,50,0.00,,,0.00,WeatherCatV1.01B143,2013-01-24 02:49:00,
2013-01-23 21:54:00,11.8,-2.8,30.19,NW,311,8.0,17.0,51,0.00,,,0.00,WeatherCatV1.01B143,2013-01-24 02:54:00,
2013-01-23 21:59:00,11.7,-3.3,30.19,NW,308,7.0,11.0,50,0.00,,,0.00,WeatherCatV1.01B143,2013-01-24 02:59:00,
2013-01-23 22:04:00,11.7,-2.9,30.19,North,355,4.0,11.0,51,0.00,,,0.00,WeatherCatV1.01B143,2013-01-24 03:04:00,
2013-01-23 22:09:00,11.4,-3.2,30.19,WNW,297,6.0,8.0,51,0.00,,,0.00,WeatherCatV1.01B143,2013-01-24 03:09:00,
2013-01-23 22:14:00,11.3,-2.9,30.19,North,5,7.0,8.0,52,0.00,,,0.00,WeatherCatV1.01B143,2013-01-24 03:14:00,
2013-01-23 22:19:00,11.1,-3.5,30.20,NW,320,7.0,11.0,51,0.00,,,0.00,WeatherCatV1.01B143,2013-01-24 03:19:00,
2013-01-23 22:24:00,10.9,-3.6,30.20,NW,313,6.0,14.0,51,0.00,,,0.00,WeatherCatV1.01B143,2013-01-24 03:24:00,
2013-01-23 22:29:00,10.9,-4.0,30.20,NW,320,7.0,18.0,50,0.00,,,0.00,WeatherCatV1.01B143,2013-01-24 03:29:00,
2013-01-23 22:34:00,10.9,-4.0,30.20,NW,313,13.0,13.0,50,0.00,,,0.00,WeatherCatV1.01B143,2013-01-24 03:34:00,
2013-01-23 22:39:00,10.9,-3.6,30.20,NNW,340,14.0,17.0,51,0.00,,,0.00,WeatherCatV1.01B143,2013-01-24 03:39:00,
2013-01-23 22:44:00,10.9,-4.0,30.20,NW,306,17.0,17.0,50,0.00,,,0.00,WeatherCatV1.01B143,2013-01-24 03:44:00,
2013-01-23 22:49:00,10.8,-4.1,30.20,NW,315,9.0,14.0,50,0.00,,,0.00,WeatherCatV1.01B143,2013-01-24 03:49:00,
2013-01-23 22:54:00,10.8,-3.7,30.20,NW,306,7.0,11.0,51,0.00,,,0.00,WeatherCatV1.01B143,2013-01-24 03:54:00,
2013-01-23 22:59:00,10.7,-3.8,30.20,WNW,302,8.0,14.0,51,0.00,,,0.00,WeatherCatV1.01B143,2013-01-24 03:59:00,
2013-01-23 23:04:00,10.6,-4.3,30.20,NW,323,8.0,13.0,50,0.00,,,0.00,WeatherCatV1.01B143,2013-01-24 04:04:00,
2013-01-23 23:09:00,10.5,-4.0,30.20,NW,308,8.0,12.0,51,0.00,,,0.00,WeatherCatV1.01B143,2013-01-24 04:09:00,
2013-01-23 23:14:00,10.4,-4.1,30.20,NW,305,9.0,14.0,51,0.00,,,0.00,WeatherCatV1.01B143,2013-01-24 04:14:00,
2013-01-23 23:19:00,10.3,-3.8,30.20,NW,304,10.0,11.0,52,0.00,,,0.00,WeatherCatV1.01B143,2013-01-24 04:19:00,
2013-01-23 23:24:00,10.3,-4.2,30.20,North,358,5.0,14.0,51,0.00,,,0.00,WeatherCatV1.01B143,2013-01-24 04:24:00,
2013-01-23 23:29:00,10.2,-3.9,30.20,NNW,334,9.0,12.0,52,0.00,,,0.00,WeatherCatV1.01B143,2013-01-24 04:29:00,
2013-01-23 23:34:00,10.1,-3.6,30.20,NW,306,8.0,12.0,53,0.00,,,0.00,WeatherCatV1.01B143,2013-01-24 04:34:00,
2013-01-23 23:39:00,10.0,-4.1,30.19,NNW,336,10.0,12.0,52,0.00,,,0.00,WeatherCatV1.01B143,2013-01-24 04:39:00,
2013-01-23 23:44:00,9.9,-3.8,30.19,NW,309,10.0,10.0,53,0.00,,,0.00,WeatherCatV1.01B143,2013-01-24 04:44:00,
2013-01-23 23:49:00,9.8,-3.9,30.19,WNW,292,8.0,13.0,53,0.00,,,0.00,WeatherCatV1.01B143,2013-01-24 04:49:00,
2013-01-23 23:54:00,9.7,-4.0,30.19,NW,304,6.0,12.0,53,0.00,,,0.00,WeatherCatV1.01B143,2013-01-24 04:54:00,
2013-01-23 23:59:00,9.6,-3.7,30.19,WNW,301,6.0,8.0,54,0.00,,,0.00,WeatherCatV1.01B143,2013-01-24 04:59:00,